#timestamp,LO_Frequency,Hit,StdDev 
1540720815.9,286046998.1,N
1540720835.7,286046998.7,N
1540720855.5,286046998.7,N
1540720875.4,286047001.2,N
1540720895.2,286047002.6,N
1540720915.1,286047002.3,N
1540720916.0,286047002.3,N
1540720935.8,286047004.4,N
1540720955.6,286047002.0,N
1540720975.5,286047001.6,N
1540720995.3,286047003.2,N
1540721015.1,286047003.7,N
1540721035.9,286047003.7,N
1540721055.7,286047004.0,N
1540721075.6,286047003.9,N
1540721095.4,286047003.3,N
1540721115.2,286047005.6,N
1540721135.1,286047003.4,N
1540721136.0,286047003.4,N
1540721155.8,286047003.8,N
1540721175.6,286047002.0,N
1540721195.5,286047000.1,N
1540721215.3,286047000.5,N
1540721235.2,286046999.3,N
1540721255.9,286046998.6,N
1540721275.7,286046998.5,N
1540721295.6,286046998.4,N
1540721315.4,286047000.6,N
1540721335.2,286047000.4,N
1540721355.1,286046998.2,N
1540721356.0,286046998.2,N
1540721375.8,286047001.2,N
1540721395.7,286046998.2,N
1540721415.5,286047000.9,N
1540721435.3,286047000.7,N
1540721455.2,286046999.3,N
1540721475.0,286046997.8,N
1540721475.9,286046997.8,N
1540721495.7,286046995.3,N
1540721515.6,286046998.0,N
1540721535.4,286046993.3,N
1540721555.3,286046995.4,N
1540721575.1,286046996.1,N
1540721576.0,286046996.1,N
1540721595.8,286046994.6,N
1540721615.7,286046993.8,N
1540721635.5,286046994.1,N
1540721655.3,286046992.1,N
1540721675.2,286046992.3,N
1540721695.0,286046994.8,N
1540721695.9,286046994.8,N
1540721715.8,286046992.4,N
1540721735.6,286046990.7,Y
1540721755.4,286046993.9,P
1540721775.3,286046993.6,P
1540721795.1,286046993.3,P
1540721815.9,286046994.2,Y
1540721835.7,286047000.9,P
1540721855.5,286047001.2,N
1540721875.4,286047001.0,N
1540721895.2,286046998.7,N
1540721915.0,286046997.0,N
1540721915.9,286046997.0,N
1540721935.8,286046996.7,N
1540721955.6,286046997.0,N
1540721975.5,286046997.1,N
1540721995.3,286046995.3,N
1540722015.1,286046997.7,N
1540722035.9,286046999.3,N
1540722055.7,286046999.6,N
1540722075.5,286046998.0,N
1540722095.4,286046995.7,N
1540722115.2,286046994.9,N
1540722135.0,286046998.0,N
1540722136.0,286046998.0,N
1540722155.8,286046996.2,N
1540722175.6,286046995.5,N
1540722195.5,286046995.1,N
1540722215.3,286046996.4,N
1540722235.1,286046994.3,N
1540722255.9,286046991.8,Y
1540722275.7,286046995.4,P
1540722295.6,286046996.1,P
1540722315.4,286046993.5,P
1540722335.2,286046995.0,Y
1540722355.1,286047002.7,P
1540722356.0,286047002.7,N
1540722375.8,286047000.4,N
1540722395.6,286046999.1,N
1540722415.5,286046999.0,N
1540722435.3,286046999.3,N
1540722455.2,286046998.6,N
1540722475.9,286046998.5,N
1540722495.7,286046998.8,N
1540722515.6,286046998.6,N
1540722535.4,286047000.5,N
1540722555.2,286047000.0,N
1540722575.1,286046999.8,N
1540722576.0,286046999.8,N
1540722595.8,286047000.8,N
1540722615.7,286047001.0,N
1540722635.5,286046998.1,N
1540722655.3,286046998.8,N
1540722675.2,286046996.7,N
1540722695.0,286046998.9,N
1540722695.9,286046998.9,N
1540722715.7,286046998.6,N
1540722735.6,286046998.5,N
1540722755.4,286046998.9,N
1540722775.3,286047000.8,N
1540722795.1,286047002.3,N
1540722796.0,286047002.3,N
1540722815.8,286047003.6,N
1540722835.7,286047003.6,N
1540722855.5,286047001.8,N
1540722875.3,286047002.0,N
1540722895.2,286046999.7,N
1540722915.0,286047002.2,N
1540722915.9,286047002.2,N
1540722935.8,286047000.0,N
1540722955.6,286047002.4,N
1540722975.4,286047000.0,N
1540722995.3,286047002.8,N
1540723015.1,286047000.2,N
1540723035.8,286047002.5,N
1540723055.7,286046999.7,N
1540723075.5,286047001.1,N
1540723095.4,286047000.0,N
1540723115.2,286047002.6,N
1540723135.0,286047001.9,N
1540723135.9,286047001.9,N
1540723155.8,286047001.4,N
1540723175.6,286047003.9,N
1540723195.4,286047002.0,N
1540723215.3,286046999.8,N
1540723235.1,286047002.6,N
1540723255.9,286047001.9,N
1540723275.7,286047001.3,N
1540723295.5,286047001.6,N
1540723315.4,286047004.3,Y
1540723335.2,286046999.8,P
1540723355.0,286047000.1,N
1540723356.0,286047000.1,N
1540723375.8,286047002.0,N
1540723395.6,286047002.6,N
1540723415.5,286047004.0,Y
1540723435.3,286047001.4,P
1540723455.1,286047004.2,P
1540723475.9,286047000.2,N
1540723495.7,286047000.4,N
1540723515.6,286046999.8,N
1540723535.4,286046998.5,N
1540723555.2,286046998.3,N
1540723575.1,286046999.3,N
1540723576.0,286046999.3,N
1540723595.8,286046996.5,N
1540723615.6,286046999.6,N
1540723635.5,286046996.5,N
1540723655.3,286046996.7,N
1540723675.2,286046998.5,N
1540723695.9,286047001.1,N
1540723715.7,286046998.1,N
1540723735.6,286047000.6,N
1540723755.4,286047000.0,N
1540723775.2,286046999.9,N
1540723795.1,286047000.4,N
1540723796.0,286047000.4,N
1540723815.8,286047000.2,N
1540723835.7,286047000.3,N
1540723855.5,286047000.5,N
1540723875.3,286046999.3,N
1540723895.2,286046996.8,N
1540723915.9,286046997.0,N
1540723935.7,286046999.2,N
1540723955.6,286046997.4,N
1540723975.4,286046999.6,N
1540723995.3,286046998.8,N
1540724015.1,286046999.3,N
1540724016.0,286046999.3,N
1540724035.8,286046998.3,N
1540724055.7,286046998.4,N
1540724075.5,286047000.9,N
1540724095.3,286046999.7,N
1540724115.2,286047000.2,N
1540724135.0,286047000.5,N
1540724135.9,286047000.5,N
1540724155.8,286047000.5,N
1540724175.6,286047000.7,N
1540724195.4,286046999.1,N
1540724215.3,286046998.5,N
1540724235.1,286046999.5,N
1540724255.8,286046998.5,N
1540724275.7,286046998.7,N
1540724295.5,286046998.7,N
1540724315.4,286046999.0,N
1540724335.2,286046998.3,N
1540724355.0,286046998.5,N
1540724355.9,286046998.5,N
1540724375.8,286046998.9,N
1540724395.6,286046996.6,Y
